Location: Hurstbourne Priors
(51.2000°N, 1.3667°W)
Time: 15:42:16
(UTC+00:00)

SL-4 R/B - Pass Details

Date: 09 April 2020
Orbit: 428 x 666 km, 51.6° (Epoch: 02 June)

Event Time Altitude Azimuth Distance (km) Brightness Sun altitude
Rises 22:19:52 0° 281° (WNW) 2,402 5.9 -26.5°
Reaches altitude 10° 22:21:57 10° 280° (W) 1,544 4.8 -26.6°
Enters shadow 22:22:46 16° 279° (W) 1,212 4.2 -26.7°
